Tracking 18980 objects as of 19-Feb-2018
HD Live streaming from Space Station
objects crossing your sky now

COSMOS 1898

Track COSMOS 1898 now!
10-day predictions
COSMOS 1898 is classified as:


NORAD ID: 18585
Int'l Code: 1987-098A
Perigee: 771.1 km
Apogee: 802.9 km
Inclination: 74.0 °
Period: 100.4 minutes
Semi major axis: 7157 km
RCS: 2.2742 m2 (large)
Launch date: December 1, 1987
Source: Commonwealth of Independent States (former USSR) (CIS)
Launch site: PLESETSK MISSILE AND SPACE COMPLEX (PKMTR)
aabbcc
Your satellite tracking list
Your tracking list is empty




NASA's NSSDC Master Catalog

Two Line Element Set (TLE):
1 18585U 87098A   18049.87225487  .00000012  00000-0  13985-4 0  9997
2 18585  74.0050 283.7632 0022194 273.3843  86.4769 14.33563551579933
Source of the keplerian elements: AFSPC